Location: Bothwell
(42.3833°S, 147.0000°E)
Time: 09:15:33
(UTC+10:00)

UNISAT 6 - Pass Details

Date: 12 August 2024
Orbit: 589 x 662 km, 97.7° (Epoch: 14 September)

Event Time Altitude Azimuth Distance (km) Brightness Sun altitude
Rises 05:58:14 0° 183° (S) 3,044 ? -13.4°
Reaches altitude 10° 06:00:58 10° 199° (SSW) 2,124 ? -12.9°
Maximum altitude 06:04:19 20° 245° (WSW) 1,551 ? -12.3°
Enters shadow 06:06:08 16° 274° (W) 1,732 ? -12.0°
